Temp
7 6 6 6 6 6 6 6 6 6 6 6 6 5 5 5 5 5 5 5 5 5 5 6 6 6 6 6 6 6 6 7 7 7 7 7 7 8 8 8 8 8 8 9 9 9 9 10 10 10 9 9 9 9 9 9 9 9 10 10 10 10 10 11 11 11 11 11 11
7 7 6 6 6 6 6 6 6 6 6 6 6 5 5 5 5 5 5 5 5 5 5 5 5 6 6 6 6 6 6 6 6 7 7 7 7 7 8 8 8 8 8 8 9 9 9 9 10 10 10 9 9 9 9 9 9 9 9 9 10 10 10 10 10 10 10 10 10
7 7 6 6 6 6 6 6 6 6 6 6 6 5 5 5 5 4 4 5 5 5 5 5 5 5 6 6 6 6 6 6 6 6 6 7 7 7 7 8 8 8 8 8 8 9 9 9 10 10 10 9 9 9 9 9 9 9 9 9 9 9 10 10 10 10 10 10 10
7 7 7 6 6 6 6 6 6 6 6 6 5 5 5 5 5 4 4 5 5 5 5 5 5 5 6 6 6 6 6 6 6 6 6 6 7 7 7 7 8 8 8 8 8 8 9 9 9 10 10 10 9 9 9 9 9 9 9 9 9 9 9 10 10 10 10 10 10
7 7 7 6 6 6 6 6 6 6 5 5 5 5 5 5 4 4 4 4 4 4 4 4 4 5 5 5 6 6 6 6 6 6 6 6 6 7 7 7 7 8 8 8 8 8 9 9 9 9 10 10 9 9 9 8 8 9 9 9 9 9 9 9 9 10 10 10 10
7 7 7 6 6 6 6 5 5 5 5 5 5 5 5 4 4 3 3 4 4 4 3 4 4 4 5 5 5 5 6 6 6 6 6 6 6 6 7 7 7 8 8 8 8 8 8 9 9 9 9 10 10 9 9 8 8 9 9 9 9 9 9 9 9 9 9 9 9
7 7 7 6 6 6 6 5 5 5 5 5 5 5 4 4 3 3 3 3 3 3 3 3 3 4 4 5 5 5 5 5 6 6 6 6 6 6 7 7 7 8 8 8 8 8 8 8 9 9 9 9 10 10 9 9 8 9 9 9 9 9 9 9 9 9 9 9 9
7 7 6 6 6 6 6 5 5 5 5 5 5 4 4 3 3 3 2 3 3 3 3 3 3 3 4 4 5 5 5 5 5 5 6 6 6 6 6 7 7 7 8 8 8 8 8 8 8 9 9 9 9 10 10 9 9 9 9 9 9 9 9 8 8 9 9 9 9
7 7 6 6 6 6 5 5 5 5 5 5 4 4 3 3 3 3 2 3 3 2 2 2 3 3 3 4 4 4 4 5 5 5 5 5 6 6 6 6 7 7 7 8 8 8 8 8 8 8 9 9 9 9 10 9 9 9 8 9 9 9 9 8 8 8 8 9 9
7 7 7 6 6 6 5 5 5 5 5 5 4 3 3 3 3 3 3 3 2 2 2 2 2 3 3 3 3 3 3 4 4 5 5 5 5 5 6 6 6 7 7 8 8 8 8 8 8 8 8 9 9 9 9 9 9 9 9 8 8 9 9 8 8 8 8 8 8
7 7 7 6 6 6 6 5 5 5 5 4 4 3 3 3 3 3 3 2 2 2 2 2 2 2 2 2 2 3 3 3 4 4 5 5 5 5 5 5 6 6 7 7 8 8 8 8 8 8 8 8 9 9 9 9 9 9 9 9 8 8 8 8 8 8 8 8 8
7 7 7 7 6 6 6 6 5 5 5 4 3 3 3 3 3 3 3 2 2 2 2 2 2 2 2 2 2 2 3 3 3 4 5 5 5 5 5 5 5 6 6 7 7 7 7 8 8 8 8 8 8 9 9 9 9 9 9 9 9 8 8 8 8 8 8 8 8
7 7 7 7 6 6 6 6 6 5 5 4 4 3 3 3 3 3 3 2 2 2 2 2 2 2 2 2 2 2 3 3 3 3 4 5 5 5 5 5 5 6 6 6 7 7 7 7 8 8 8 8 8 8 8 9 9 9 9 9 9 9 8 8 8 8 8 8 8
7 7 7 7 7 6 6 6 6 5 5 5 4 4 3 3 3 3 3 3 2 2 2 2 2 2 2 2 2 2 2 3 3 3 3 4 4 4 4 5 5 5 6 6 6 7 7 7 7 7 8 8 8 8 8 8 8 9 9 9 9 9 8 8 8 8 8 8 8
7 7 7 7 7 6 6 6 6 5 5 5 4 4 4 4 4 4 3 3 3 3 3 2 2 2 2 2 2 2 2 2 2 3 3 3 4 4 4 4 5 5 5 6 6 6 7 7 7 7 7 8 8 8 8 8 8 8 8 9 9 9 9 8 8 8 7 7 8
7 7 7 7 7 6 6 6 6 5 5 5 5 4 4 4 4 4 4 4 4 3 3 2 2 2 2 2 2 2 2 2 2 2 2 3 3 3 4 4 4 4 5 6 6 6 6 7 7 7 7 7 7 8 8 8 8 8 8 8 8 9 9 8 8 8 7 7 7
7 7 7 7 6 6 6 6 6 6 5 5 5 5 4 4 4 4 4 4 4 4 3 2 2 2 2 2 2 2 2 2 2 2 2 2 3 3 3 4 4 4 4 5 6 6 6 7 7 7 7 7 7 7 7 8 8 8 8 8 8 8 8 8 8 8 8 7 7
7 7 7 7 6 6 6 6 6 6 5 5 5 5 4 4 4 4 4 4 4 4 3 3 2 2 2 2 2 2 2 2 2 2 2 2 2 3 3 4 4 4 4 4 5 5 6 6 6 7 7 7 7 7 7 7 8 8 8 8 8 8 8 8 8 8 8 7 7
7 7 7 7 6 6 6 6 6 6 5 5 5 5 5 5 5 5 4 4 4 4 3 3 2 2 2 2 2 2 2 2 2 2 2 2 2 3 3 4 4 4 4 4 4 5 6 6 6 6 7 7 7 7 7 7 7 7 7 7 8 8 8 8 8 8 8 8 7
8 7 7 7 7 6 6 6 6 6 6 5 5 5 5 5 5 5 4 4 4 4 3 3 2 2 1 1 2 2 2 2 2 2 2 2 2 3 3 3 4 4 4 4 4 5 5 6 6 6 6 6 7 7 7 7 7 7 7 7 7 7 7 8 8 8 8 8 7
8 7 7 7 7 7 6 6 6 6 6 6 5 5 5 5 5 5 5 4 4 4 4 3 3 2 2 2 1 2 2 2 2 2 2 2 2 2 3 3 4 4 4 4 4 4 5 5 6 6 6 6 6 6 6 7 7 7 7 7 7 7 7 7 7 7 7 7 7
8 8 7 7 7 7 6 6 6 6 6 6 5 5 5 5 5 5 5 4 4 4 4 3 3 3 3 2 2 2 2 2 2 2 2 2 2 2 3 3 4 4 4 4 4 4 4 4 5 5 6 6 6 6 6 6 6 7 7 7 7 7 7 7 7 7 7 7 7
8 8 7 7 7 7 6 6 6 6 6 6 6 5 5 5 5 5 5 4 4 4 4 3 3 3 3 3 2 2 2 2 2 2 2 2 2 2 3 3 4 4 4 4 5 5 4 4 4 5 5 5 5 5 6 6 6 6 6 7 7 7 7 7 7 7 7 7 7
8 8 7 7 7 7 6 6 6 6 6 6 6 5 5 5 5 5 5 4 4 4 4 4 3 3 3 3 3 2 2 2 2 2 2 2 2 2 3 3 4 4 4 4 4 5 5 4 4 4 4 5 5 5 5 5 6 6 6 6 6 6 7 7 7 6 6 6 6
8 7 7 7 7 7 6 6 6 6 6 6 6 6 5 5 5 5 5 5 4 4 4 4 3 3 3 3 3 2 2 2 2 2 2 2 2 2 3 3 4 4 4 4 4 5 5 4 4 4 4 4 4 5 5 5 5 5 6 6 6 6 6 6 6 6 6 6 6
8 7 7 7 7 7 6 6 6 6 6 6 6 6 5 5 5 5 5 5 4 4 4 4 4 3 3 3 3 2 2 2 2 2 2 1 2 2 3 3 4 4 4 4 4 4 4 4 4 4 4 4 4 4 4 5 5 5 5 6 6 6 6 6 6 6 6 6 6
8 7 7 7 7 7 6 6 6 6 6 6 6 6 5 5 5 5 5 5 4 4 4 4 4 3 3 3 3 2 2 2 2 2 2 1 1 2 2 3 4 4 4 4 4 4 4 4 4 4 4 3 4 4 4 4 4 5 5 5 5 5 6 6 6 6 6 6 6
8 8 7 7 7 7 6 6 6 6 6 6 6 6 5 5 5 5 5 5 5 4 4 4 4 4 3 3 3 2 2 2 2 2 2 2 1 2 2 3 3 4 4 4 4 4 4 4 4 4 3 3 3 3 4 4 4 4 4 5 5 5 5 5 5 5 5 5 6
8 8 7 7 7 7 6 6 6 6 6 6 6 5 5 5 5 5 5 5 5 4 4 4 4 4 4 3 3 2 2 2 2 2 2 2 1 2 2 3 3 4 4 3 3 3 3 3 3 3 3 3 3 3 3 3 4 4 4 4 4 5 5 5 5 5 5 5 5
8 8 8 7 7 7 6 6 6 6 6 6 5 5 5 5 5 5 5 5 5 4 4 4 4 4 3 3 3 2 2 2 2 2 2 2 2 2 2 2 3 3 3 3 3 3 3 3 3 3 3 3 2 3 3 3 3 3 4 4 4 4 4 5 5 5 5 5 5
8 8 8 7 7 7 6 6 6 6 6 6 5 5 5 5 5 5 5 5 5 4 4 4 4 4 3 3 3 2 2 2 2 2 2 2 2 2 2 2 3 3 3 3 3 3 3 3 3 2 2 2 2 2 2 3 3 3 3 4 4 4 4 4 4 4 4 4 4
8 8 8 7 7 7 6 6 6 6 6 5 5 5 5 5 5 5 5 5 5 4 4 4 4 4 3 3 3 2 2 2 1 2 2 2 2 2 2 2 3 3 3 3 3 3 3 2 2 2 2 2 2 2 2 2 3 3 3 3 3 3 4 4 4 4 4 4 4
8 8 8 8 7 7 6 6 6 6 5 5 5 5 5 5 5 5 5 5 5 4 4 4 4 4 3 3 3 2 2 2 1 1 2 2 2 2 2 2 3 3 3 3 3 3 2 2 2 2 2 2 2 2 2 2 2 2 2 3 3 3 3 3 3 3 4 4 4
8 8 8 8 7 7 6 6 6 6 5 5 5 5 5 5 5 5 5 5 5 4 4 4 4 4 3 3 3 3 2 2 1 1 2 2 2 2 2 2 2 3 3 3 3 3 2 2 2 2 2 2 2 2 1 1 1 1 2 2 2 3 3 3 3 3 3 3 3
8 8 8 8 7 7 7 6 6 6 6 5 5 5 5 5 5 5 5 5 5 4 4 4 4 4 3 3 3 3 3 2 2 2 2 2 2 2 2 2 2 2 3 3 3 3 2 2 2 2 2 1 1 1 2 2 1 1 1 1 2 2 2 2 2 2 2 2 3
8 8 8 8 7 7 7 6 6 6 6 5 5 5 5 5 5 5 5 5 5 4 4 4 4 4 4 3 3 3 3 2 2 2 2 2 2 2 2 2 2 2 3 3 3 3 3 2 2 2 2 1 1 1 1 1 1 1 1 1 1 1 1 2 2 2 2 2 2
8 8 8 8 7 7 7 7 6 6 6 6 5 5 5 5 5 5 5 5 4 4 4 4 4 4 4 4 3 3 3 3 3 3 3 2 2 2 2 2 2 2 2 3 3 3 3 2 2 2 2 1 0 1 1 1 1 1 1 1 1 1 1 1 1 1 2 2 2
8 8 8 8 7 7 7 7 7 6 6 6 6 5 5 5 5 5 5 4 4 4 4 4 4 4 4 4 3 3 3 3 3 3 3 3 3 3 2 2 2 2 2 2 2 3 2 2 2 2 1 0 0 1 1 1 1 0 0 0 1 1 1 1 1 1 1 1 2
8 8 8 8 8 7 7 7 7 7 6 6 6 5 5 5 5 5 5 4 4 4 4 4 4 4 4 4 4 3 3 3 3 3 3 3 3 3 3 2 2 2 2 2 2 2 2 2 2 2 1 1 0 0 1 1 0 0 0 0 0 1 1 0 0 0 0 1 1
8 8 8 8 8 8 7 7 7 7 6 6 6 6 5 5 5 5 5 4 4 4 4 4 4 4 4 4 4 4 3 3 3 3 3 3 3 3 3 2 2 2 2 2 2 2 2 2 2 2 1 1 0 0 0 0 0 -0 -0 -0 -0 -0 0 0 0 0 0 0 1
8 8 8 8 8 8 8 8 7 7 6 6 6 6 5 5 5 5 4 4 4 4 4 4 4 4 4 4 4 4 3 3 3 3 3 3 3 3 2 2 2 2 2 2 2 2 2 2 2 2 1 1 0 0 0 1 0 0 -0 -0 -0 -0 -0 0 0 0 0 0 0
Height
746 745 745 745 745 745 745 745 745 745 745 745 745 745 744 744 744 744 744 744 744 744 744 743 743 742 741 741 740 739 739 738 737 736 735 734 732 731 730 729 727 726 725 724 723 722 720 719 719 718 717 715 713 711 710 708 706 705 704 703 701 700 699 697 695 694 692 691 689
745 745 745 745 745 745 745 745 745 745 745 745 744 744 744 744 744 744 744 744 744 744 743 743 742 742 741 740 740 739 738 738 737 736 735 734 732 731 730 729 728 726 725 724 723 722 720 719 718 718 717 715 713 711 710 708 707 705 704 703 701 700 699 697 696 694 692 690 689
745 745 745 745 745 745 745 745 745 744 744 744 744 744 744 744 743 743 743 743 743 743 743 743 742 741 741 740 740 739 738 737 737 736 735 734 732 731 730 729 728 726 725 724 723 722 721 720 718 718 717 715 714 712 710 709 707 706 705 703 702 700 699 698 696 694 692 691 689
745 745 745 745 745 745 745 744 744 744 744 744 744 744 743 743 743 743 743 743 743 743 742 742 742 741 740 740 739 739 738 737 736 736 735 734 732 731 730 729 728 727 726 725 724 722 721 720 719 718 717 716 714 712 711 709 708 706 705 704 702 701 700 698 696 695 693 691 690
745 745 745 745 745 745 744 744 744 744 744 744 743 743 743 743 742 742 742 742 742 742 742 742 741 741 740 740 739 738 738 737 736 735 735 734 733 731 730 729 728 727 726 725 724 723 721 720 719 718 717 716 715 713 712 710 708 707 705 704 703 701 700 699 697 695 694 692 690
745 745 745 744 744 744 744 744 744 744 743 743 743 743 743 742 742 742 741 742 742 742 741 741 741 741 740 740 739 738 737 737 736 735 735 734 733 731 730 729 728 727 726 725 724 723 722 720 719 718 717 716 715 714 712 711 709 707 706 705 703 702 701 699 698 696 695 693 691
745 745 744 744 744 744 744 744 744 743 743 743 743 742 742 742 742 741 741 741 741 741 741 741 740 740 740 739 739 738 737 736 736 735 735 734 733 732 730 729 728 727 726 725 725 723 722 721 720 719 717 716 715 715 713 711 710 708 707 705 704 703 701 700 699 697 695 694 692
744 744 744 744 744 744 744 743 743 743 743 743 742 742 742 742 742 741 741 741 741 741 741 740 740 740 740 739 739 738 737 737 736 735 735 734 733 732 731 730 729 728 727 726 725 724 723 721 720 719 718 717 716 715 714 712 711 709 708 706 705 704 702 701 699 698 696 695 693
744 744 744 744 744 743 743 743 743 743 743 742 742 742 742 742 741 741 741 740 740 740 740 740 740 740 739 739 738 738 737 736 736 735 735 734 733 732 731 730 729 728 727 726 725 724 723 722 721 720 719 718 716 715 715 713 712 710 709 707 706 705 703 701 700 698 697 695 693
744 744 744 743 743 743 743 743 743 743 742 742 742 742 742 742 741 741 741 740 740 740 740 740 740 739 739 739 738 738 737 736 736 735 735 734 733 732 731 730 729 728 727 726 725 725 724 723 722 721 720 719 717 716 715 714 713 711 710 708 707 705 704 702 700 699 697 696 695
744 744 743 743 743 743 743 743 743 743 742 742 742 742 741 741 741 741 741 740 740 740 740 740 740 739 739 738 738 737 737 736 736 735 735 734 733 732 732 731 730 729 728 727 726 725 724 724 723 722 720 720 718 717 715 714 713 712 711 710 708 706 705 703 701 700 699 697 695
743 743 743 743 743 743 743 742 742 742 742 742 742 742 741 741 741 741 740 740 740 740 740 740 740 739 739 738 738 737 737 736 736 735 735 734 734 733 732 731 730 730 729 728 727 726 725 724 723 722 721 720 719 718 716 715 714 713 712 710 709 707 705 704 702 701 700 698 696
743 743 743 743 743 742 742 742 742 742 742 742 742 742 742 741 741 741 740 740 740 740 740 740 740 739 739 738 738 737 737 736 736 735 735 734 734 733 732 731 730 730 729 728 727 726 725 725 724 723 722 721 720 719 717 716 715 714 713 711 710 709 707 705 704 702 700 699 697
742 742 742 742 742 742 742 742 742 742 742 742 742 742 742 741 741 741 741 740 740 740 740 740 740 739 739 739 738 738 737 736 736 735 735 735 734 733 732 732 731 730 730 729 728 727 726 725 724 723 722 721 721 720 718 717 715 714 713 712 711 710 709 707 705 703 701 700 698
742 742 742 742 742 742 742 742 742 742 742 742 742 742 742 741 741 741 741 741 740 740 740 740 739 739 739 739 738 738 737 737 736 736 735 735 734 734 733 732 732 731 730 729 728 727 727 726 725 724 723 722 721 720 719 718 716 715 714 713 712 711 710 709 707 705 703 701 700
741 742 742 742 742 742 742 742 742 742 742 742 742 742 741 741 741 741 741 741 741 740 740 740 739 739 739 739 738 738 737 737 737 736 735 735 734 734 733 733 732 731 730 730 729 728 727 726 725 725 724 723 722 721 720 719 717 716 715 714 713 712 711 710 709 707 705 703 701
741 741 741 741 741 741 741 741 742 742 742 742 741 741 741 741 741 741 741 741 740 740 740 740 739 739 739 739 738 738 738 737 737 736 736 735 735 734 734 733 733 732 731 730 729 728 728 727 726 725 724 723 722 722 721 720 719 717 716 715 714 713 712 711 710 709 707 705 703
740 741 741 741 741 741 741 741 741 741 741 741 741 741 741 741 741 741 741 741 740 740 740 739 739 739 739 739 738 738 738 738 737 736 736 735 735 735 734 734 733 733 732 731 730 729 728 727 726 726 725 724 723 722 721 720 719 718 717 716 715 714 713 712 711 710 709 707 705
740 740 740 740 740 741 741 741 741 741 741 741 741 741 741 741 741 741 741 741 740 740 740 740 739 739 739 738 738 738 738 738 737 737 736 735 735 735 734 734 734 733 733 732 731 730 729 728 727 726 725 725 724 723 722 721 720 719 718 717 716 715 714 713 712 711 710 709 708
740 740 740 740 740 740 740 740 741 741 741 741 741 741 741 741 741 741 741 741 740 740 740 740 739 739 739 738 738 738 738 738 738 737 736 736 735 735 735 734 734 734 733 732 731 730 730 728 728 727 726 725 725 724 723 722 721 720 719 718 717 716 715 714 713 712 711 710 709
739 739 739 740 740 740 740 740 740 740 740 740 740 740 740 740 741 741 741 741 740 740 740 740 739 739 739 738 738 738 738 738 738 737 737 736 735 735 735 735 734 734 733 733 732 731 730 729 728 727 727 726 725 724 723 722 721 721 720 719 718 717 716 715 714 713 713 712 711
739 739 739 739 739 740 740 740 740 740 740 740 740 740 740 740 740 740 741 741 740 740 740 740 740 739 739 738 738 738 739 739 738 738 737 736 736 735 735 735 735 734 734 733 732 731 731 730 729 728 727 726 726 725 724 723 722 722 721 720 719 719 718 716 715 715 714 713 712
738 738 739 739 739 739 739 739 740 740 740 740 740 740 740 740 740 740 740 740 740 740 740 740 740 739 739 739 738 738 739 739 739 738 738 737 736 736 735 735 735 734 734 733 733 732 731 730 729 729 728 727 726 726 725 724 723 723 722 721 720 720 719 718 717 716 715 714 713
737 738 738 738 738 739 739 739 739 739 740 740 740 740 740 740 740 740 740 740 740 740 740 740 740 739 739 739 739 739 739 739 739 739 738 737 736 736 736 735 735 735 734 734 733 732 731 731 730 729 728 728 727 726 726 725 724 723 722 722 721 720 720 719 718 717 716 715 714
737 737 737 738 738 738 738 738 739 739 739 739 739 740 740 740 740 740 740 740 740 740 740 740 740 739 739 739 739 739 739 739 739 739 739 738 737 736 736 736 735 735 735 734 734 733 732 731 730 730 729 728 728 727 726 725 725 724 723 723 722 721 720 720 719 718 717 716 715
736 737 737 737 737 738 738 738 738 738 739 739 739 739 739 739 740 740 740 740 740 740 740 740 740 739 739 739 738 738 739 739 739 739 739 738 737 737 736 736 736 736 735 735 734 734 733 732 731 730 730 729 728 728 727 726 725 725 724 723 722 722 721 720 720 719 718 717 716
736 736 736 737 737 737 737 737 738 738 738 738 739 739 739 739 739 739 740 740 740 740 740 740 740 739 739 739 738 738 739 739 739 739 739 739 738 737 737 736 736 736 736 735 735 734 733 733 732 731 730 730 729 728 728 727 726 726 725 724 723 723 722 721 720 720 719 718 717
735 735 736 736 736 736 737 737 737 737 738 738 738 738 739 739 739 739 739 739 740 740 740 740 739 739 739 739 739 738 739 739 739 739 739 739 738 737 737 737 737 737 736 736 735 734 734 733 732 731 731 730 730 729 728 728 727 726 726 725 724 724 723 722 722 721 720 719 719
734 735 735 735 735 736 736 736 736 737 737 737 738 738 738 738 739 739 739 739 739 739 739 739 739 739 739 739 739 739 739 739 739 740 739 739 738 738 737 737 737 737 737 736 735 735 734 733 733 732 731 730 730 729 729 728 728 727 726 726 725 725 724 723 723 722 721 720 720
734 734 734 735 735 735 735 736 736 736 737 737 737 737 738 738 738 738 739 739 739 739 739 739 739 739 739 739 739 739 739 739 739 740 739 739 738 738 737 737 737 737 737 736 735 735 734 734 733 732 731 731 730 730 729 729 728 728 727 727 726 725 725 724 724 723 722 722 721
733 733 734 734 734 735 735 735 735 736 736 736 737 737 737 738 738 738 738 738 739 739 739 739 739 739 739 739 739 739 739 739 739 739 739 739 739 738 738 738 738 738 737 737 736 735 734 734 733 732 732 731 730 730 730 729 729 728 728 727 727 726 726 725 725 724 723 722 722
732 732 733 733 734 734 734 735 735 735 735 736 736 736 737 737 737 738 738 738 738 739 739 739 739 739 739 739 739 739 739 739 739 739 739 739 739 738 738 738 738 738 738 737 736 735 735 734 733 733 732 731 731 730 730 730 729 729 728 728 727 727 726 726 725 725 724 723 723
731 731 732 732 733 733 734 734 734 735 735 735 735 736 736 737 737 737 737 738 738 738 739 739 739 739 739 739 739 739 739 739 739 739 739 739 739 739 738 738 738 738 738 737 736 736 735 734 734 733 732 732 731 730 730 730 729 729 729 728 728 727 727 726 726 725 725 724 723
730 730 731 732 732 733 733 733 734 734 735 735 735 735 736 736 736 737 737 737 738 738 738 739 739 739 739 739 739 739 739 739 739 739 740 740 740 739 738 738 738 738 738 738 737 736 735 735 734 733 733 732 731 731 730 730 730 729 729 728 728 728 727 727 726 726 725 725 724
729 730 730 731 731 732 732 733 733 734 734 734 735 735 735 736 736 736 737 737 738 738 738 739 739 739 739 739 740 740 740 740 740 740 740 740 740 739 739 738 738 738 738 738 737 737 736 735 734 734 733 732 732 731 731 730 730 730 729 729 728 728 727 727 727 726 726 725 725
728 729 729 730 730 731 731 732 732 733 733 734 734 735 735 735 736 736 736 737 737 738 738 738 739 739 739 740 740 740 740 740 740 740 740 740 740 740 739 739 739 738 738 738 738 737 736 735 735 734 733 733 732 732 731 731 730 730 730 729 729 728 728 727 727 727 726 726 725
727 727 728 729 730 730 731 731 732 732 733 733 734 734 735 735 735 736 736 737 737 737 738 738 739 739 739 740 740 740 740 740 740 740 740 740 740 740 740 739 739 739 739 739 738 738 737 736 735 735 734 733 733 732 732 731 731 730 730 730 729 729 728 728 728 727 727 726 726
725 726 727 728 729 729 730 730 731 731 732 732 733 734 734 735 735 735 736 736 737 737 738 738 739 739 739 740 740 740 740 740 740 740 740 740 740 740 740 740 739 739 739 739 739 738 738 737 736 735 734 733 733 733 733 732 731 731 730 730 730 729 729 728 728 727 727 727 726
725 725 726 727 728 728 729 730 730 731 731 732 732 733 734 734 735 735 735 736 736 737 737 738 738 739 739 739 740 740 740 740 740 740 740 740 740 740 740 740 740 740 739 739 739 739 738 738 737 736 735 734 734 734 733 733 732 732 731 731 730 730 730 729 729 728 727 727 727
724 725 725 726 727 728 728 729 729 730 731 731 732 732 733 734 734 735 735 736 736 737 737 738 738 739 739 739 740 740 740 740 740 740 740 740 740 740 740 740 740 740 740 740 739 739 739 738 737 737 736 735 734 734 734 734 733 733 732 731 731 730 730 730 729 729 728 727 727
723 724 725 725 726 727 727 728 729 730 730 731 731 732 733 733 734 734 735 735 736 736 737 737 738 738 739 739 740 740 740 740 740 740 741 741 741 741 740 740 740 740 740 740 740 739 739 739 738 737 736 735 735 735 734 734 734 733 733 732 732 731 730 730 730 729 728 728 727
Wind_Speed
1 1 1 2 2 3 3 3 3 3 3 3 3 4 4 3 3 3 3 5 6 7 9 9 10 10 11 12 13 14 15 15 15 16 16 15 15 16 17 17 17 17 17 18 18 18 17 15 14 15 18 19 19 20 20 19 19 19 19 19 19 19 19 18 19 19 20 21 22
1 1 1 2 2 2 2 2 2 2 2 2 2 3 3 3 3 2 3 3 4 5 7 8 9 9 10 11 12 14 14 14 14 15 15 15 15 16 16 16 16 17 17 18 19 18 18 16 15 15 17 20 21 21 21 20 20 19 19 20 20 19 19 19 19 20 21 22 23
1 1 1 2 2 2 2 2 2 2 2 2 2 3 3 4 3 3 3 3 3 4 5 7 8 9 9 9 11 12 14 14 14 14 14 14 15 15 16 16 16 16 17 18 19 19 18 17 16 15 16 19 21 22 21 21 20 20 19 20 20 20 20 19 20 21 22 22 23
1 1 1 2 2 2 1 1 1 1 2 2 2 3 4 4 4 3 3 3 3 3 4 6 7 8 9 9 9 11 13 13 13 13 14 14 14 15 16 16 16 16 17 18 18 19 19 18 17 16 15 17 21 23 23 22 21 20 19 19 20 20 20 20 20 21 22 23 23
2 2 2 2 2 2 1 1 1 2 2 3 3 4 4 4 4 3 3 3 3 3 4 5 6 7 8 8 8 10 12 12 12 12 13 14 14 14 15 15 16 16 17 18 18 19 19 19 18 17 16 16 19 23 24 23 22 20 20 20 20 20 21 21 21 21 22 23 24
2 2 2 2 2 2 2 2 2 2 2 3 3 4 3 4 4 3 2 2 2 3 5 5 6 7 8 8 8 9 11 11 11 12 13 13 13 14 14 15 15 16 16 17 18 19 19 20 19 19 18 16 18 21 24 24 23 21 21 20 20 21 21 21 21 21 22 23 24
2 2 2 2 2 2 2 2 2 2 3 3 3 3 2 4 4 4 3 2 2 3 5 6 6 7 7 7 7 8 9 10 11 11 12 13 13 13 14 14 15 15 16 17 18 19 20 20 20 20 20 18 17 19 22 25 24 23 22 21 21 21 21 22 21 21 22 23 24
2 2 2 2 2 3 3 2 2 2 3 3 3 2 3 4 4 5 5 4 4 5 5 6 6 6 6 6 6 7 8 9 10 11 11 12 13 13 13 14 14 15 16 17 18 19 19 20 20 20 21 20 19 19 20 23 24 24 23 22 22 22 22 22 22 22 22 23 24
3 2 2 2 3 3 3 3 3 2 3 3 3 2 3 4 4 5 6 6 5 6 6 6 5 5 4 4 5 6 6 7 9 10 11 11 12 13 14 14 14 15 15 16 17 18 19 19 20 20 21 21 20 19 19 21 23 24 24 23 23 23 23 23 22 22 22 23 23
3 2 2 2 3 3 3 3 3 3 3 3 2 3 4 4 5 5 6 5 5 6 6 6 6 5 5 5 6 6 6 6 7 8 9 11 12 13 14 15 15 15 15 15 17 18 19 19 20 20 20 20 20 20 20 20 22 23 24 24 24 24 24 24 23 23 23 23 23
3 2 2 2 2 3 3 3 3 2 2 1 2 3 4 4 5 6 6 5 6 6 6 7 7 7 7 7 8 8 8 7 7 7 8 10 11 13 14 15 15 15 15 15 16 17 18 19 19 19 20 20 20 20 20 20 20 22 23 24 24 25 25 25 24 24 23 23 23
3 2 2 2 2 3 3 3 3 2 1 1 2 3 4 5 6 6 6 6 6 7 7 7 7 7 8 9 10 10 10 8 7 7 8 9 11 13 14 14 15 14 14 14 15 16 17 18 19 19 19 19 19 20 20 20 20 20 22 24 25 26 26 26 25 24 24 24 24
3 3 2 2 2 2 3 3 3 2 2 2 3 4 4 5 5 6 6 6 7 7 7 7 7 8 8 9 10 11 11 10 9 8 8 9 11 13 14 15 15 14 14 14 15 15 16 17 18 19 19 19 19 19 19 20 20 20 20 22 24 25 26 26 26 25 25 25 25
4 3 3 3 2 2 3 3 3 3 3 4 4 4 5 5 6 6 6 6 7 7 6 6 7 7 8 9 10 10 11 11 10 9 9 10 12 13 15 15 15 14 13 14 14 15 16 16 17 18 19 19 18 18 18 19 20 20 20 20 22 23 25 26 26 26 26 26 26
4 3 3 3 3 3 3 3 4 4 4 5 5 5 5 5 6 6 6 6 6 6 5 5 6 7 8 9 9 10 11 11 11 10 10 12 13 14 15 16 15 14 13 13 14 14 15 16 16 17 18 18 18 17 17 18 20 20 21 20 20 21 23 24 26 27 27 27 27
4 4 4 3 3 3 4 4 5 5 5 5 5 6 6 6 6 6 6 6 6 6 5 5 7 8 8 9 9 10 11 11 11 10 11 13 14 15 16 16 16 15 14 13 13 14 15 15 15 16 17 18 17 17 17 17 19 20 21 20 20 20 21 22 25 26 27 28 27
5 4 4 4 4 4 4 5 5 6 5 5 5 5 5 6 6 6 7 7 7 7 7 7 7 8 9 9 10 10 11 11 11 11 11 12 14 15 16 16 16 16 15 13 13 13 14 15 15 15 15 17 17 17 17 17 18 19 20 20 20 20 20 21 23 25 27 28 28
5 5 5 4 4 4 5 5 6 6 6 6 5 5 5 5 5 6 7 7 8 8 9 9 8 8 9 9 10 11 11 11 11 11 11 12 13 14 15 16 16 16 15 14 13 12 13 14 14 14 14 15 16 16 16 17 17 18 20 20 20 21 21 21 22 23 25 27 27
6 5 5 5 5 5 5 6 6 6 6 6 5 5 5 5 5 5 6 7 8 8 9 9 9 8 8 9 10 11 11 11 11 11 11 12 13 14 15 15 16 16 16 15 13 11 11 12 13 14 14 15 15 15 16 16 17 18 19 20 20 21 21 22 22 23 24 25 26
6 6 5 5 5 5 6 7 7 7 6 6 5 5 5 4 4 5 5 6 7 8 9 9 9 8 8 9 10 11 11 11 11 11 11 12 13 14 15 15 15 15 15 15 14 12 10 11 12 14 14 14 14 15 15 16 17 18 19 19 20 20 21 22 22 23 23 24 25
6 6 5 5 5 6 6 7 7 7 6 6 5 5 5 4 4 4 5 5 6 7 7 8 8 8 8 8 10 11 11 11 11 11 11 12 13 14 14 15 15 15 15 15 15 13 11 10 11 13 14 14 14 14 15 16 17 17 18 19 19 20 20 21 22 22 23 24 24
6 6 5 5 6 6 6 7 7 7 6 6 6 5 5 4 4 4 5 5 5 6 6 7 8 8 8 8 9 10 11 11 10 10 11 12 13 14 14 15 15 15 15 15 15 14 12 10 10 11 13 13 14 14 15 15 16 17 17 18 18 19 19 20 21 22 22 23 24
6 6 6 6 6 6 6 7 7 7 6 6 6 5 5 5 5 5 5 5 5 5 6 6 7 8 8 7 8 10 10 11 10 10 11 12 13 14 14 14 15 16 16 15 15 14 13 11 10 10 11 13 13 13 14 14 15 16 17 17 18 18 19 19 20 21 21 22 23
7 6 6 6 6 6 6 6 6 7 7 7 6 6 5 5 5 5 5 5 5 5 5 6 7 8 8 7 7 9 10 11 10 10 10 12 13 14 15 15 15 16 15 15 14 14 13 12 11 10 11 12 12 12 13 14 15 15 16 17 18 18 19 19 20 20 21 21 22
7 6 6 6 6 6 6 6 6 7 7 7 7 6 5 5 5 5 5 5 4 4 5 5 6 7 7 7 7 9 10 11 10 10 10 11 13 15 15 15 15 15 15 14 13 12 12 11 11 10 10 10 11 11 12 13 14 15 16 16 17 18 18 19 20 20 20 21 21
8 7 7 7 6 6 6 6 6 7 7 8 7 6 6 5 5 5 5 5 5 4 4 5 6 7 7 7 7 9 10 10 10 10 10 11 12 14 15 15 15 15 14 13 12 12 11 11 10 9 9 10 10 10 11 12 13 14 15 16 17 18 18 19 20 20 20 20 20
9 8 8 7 7 6 6 6 6 7 8 8 7 7 6 5 5 5 5 5 5 4 4 5 6 7 7 7 8 9 10 10 10 10 10 11 12 14 15 15 15 15 14 13 12 12 11 10 10 9 8 9 9 10 10 11 12 13 14 16 17 18 18 19 19 19 20 20 20
10 9 9 8 7 7 6 6 6 7 8 8 8 7 6 5 5 5 5 5 4 4 4 5 5 6 7 7 8 9 10 10 10 10 10 10 12 13 15 15 16 15 14 13 12 11 11 11 10 9 8 8 9 10 10 11 11 12 13 15 16 17 18 18 18 19 19 20 20
11 10 10 9 8 7 6 6 6 7 8 8 8 7 6 6 5 5 5 5 4 4 4 4 5 6 6 7 8 9 10 10 10 9 9 10 12 14 14 15 15 15 14 13 12 12 11 11 10 9 9 8 8 9 10 10 11 12 13 13 15 15 16 17 18 18 19 19 19
12 11 10 10 9 8 7 6 6 7 8 8 8 7 6 6 6 6 5 5 5 4 4 4 4 5 6 7 7 8 9 9 9 9 9 10 12 13 14 14 15 15 14 13 13 12 11 11 10 10 9 9 9 9 10 10 11 11 12 13 13 14 14 15 16 17 18 18 19
12 12 11 10 9 8 7 6 6 7 8 8 8 7 6 6 6 6 6 5 5 4 4 4 4 5 6 6 7 8 8 9 8 9 9 10 11 13 13 14 14 14 14 14 13 12 11 11 10 10 10 10 9 9 9 9 10 10 11 12 12 13 13 14 15 16 17 17 18
13 12 12 11 10 9 8 7 7 7 8 8 8 7 6 6 6 6 6 5 4 4 3 3 4 4 5 6 7 7 8 8 8 8 9 10 11 12 13 13 14 14 14 14 13 13 12 11 11 11 11 10 9 9 9 9 9 9 10 11 11 12 12 12 13 14 15 16 17
14 13 12 12 11 10 9 8 8 8 8 8 7 7 7 7 7 7 6 5 4 4 3 3 4 4 5 5 6 7 7 8 8 8 8 9 10 11 12 13 14 14 13 14 14 13 13 12 11 10 11 10 10 9 9 9 9 9 9 10 10 11 11 12 12 13 14 14 15
15 14 13 13 12 11 10 9 9 8 8 8 8 7 7 7 7 7 7 6 5 4 3 3 4 4 5 5 5 6 7 7 7 7 7 8 9 10 12 13 14 13 13 13 14 14 13 12 11 10 10 10 10 10 9 9 9 9 9 9 9 10 10 11 12 12 13 13 13
16 15 14 14 13 12 11 10 10 9 9 8 8 8 7 7 8 8 7 6 5 4 4 4 4 4 4 4 5 5 6 7 7 7 7 7 8 10 11 13 13 13 13 13 13 14 13 12 11 10 10 10 11 10 10 10 10 10 10 9 9 10 10 10 10 11 12 13 13
17 16 16 15 14 13 12 11 11 10 9 9 9 8 8 8 8 8 7 6 5 5 5 5 4 4 4 4 4 5 6 6 7 7 7 7 7 9 11 12 12 13 13 13 13 13 13 13 12 11 10 11 11 11 11 11 11 11 10 10 10 10 10 9 10 10 11 13 13
18 17 16 16 15 14 13 12 12 11 11 10 9 9 9 9 9 9 8 7 6 6 5 5 5 5 4 4 4 5 5 6 7 7 7 6 7 8 10 11 12 12 12 12 12 13 13 13 12 12 12 12 11 11 12 12 12 11 11 10 10 10 10 9 9 9 10 11 12
18 18 17 17 16 15 14 13 13 12 12 11 10 10 9 9 9 9 9 8 7 6 6 6 6 5 4 4 4 4 5 6 6 6 6 6 6 8 9 11 11 12 12 12 12 12 12 12 12 12 13 12 12 11 11 12 12 11 11 10 10 10 10 9 9 9 10 10 11
19 18 18 17 17 16 15 14 13 13 12 11 11 10 10 9 9 9 9 8 7 7 7 7 6 6 5 4 4 4 5 5 6 6 6 5 5 7 9 10 11 11 11 11 12 12 12 12 12 12 13 13 12 11 11 11 11 11 10 10 9 9 9 9 9 9 9 10 9
19 18 18 17 17 16 15 14 14 13 12 12 11 11 10 10 9 9 9 9 8 7 7 7 7 6 5 5 4 4 5 5 6 6 5 5 5 6 8 9 10 10 11 11 11 12 12 12 12 12 12 13 13 12 11 11 11 11 10 10 9 9 9 9 9 9 9 10 10
19 19 18 18 17 16 15 14 14 13 12 12 12 11 11 10 10 9 9 9 9 8 8 8 7 6 6 5 5 5 5 5 6 5 5 4 5 5 7 8 9 9 10 10 11 11 12 12 12 12 12 13 13 12 11 11 11 11 11 10 9 9 9 9 9 9 9 10 10
Wind_Direction
265 306 324 315 300 284 274 263 261 266 280 292 302 311 316 323 331 328 336 352 0 4 4 2 356 354 357 4 14 20 22 22 21 20 19 16 13 12 13 16 18 19 19 18 17 16 16 15 14 12 11 11 10 10 11 13 14 12 10 9 7 5 4 3 3 2 1 359 356
233 294 315 308 294 280 266 254 248 251 261 274 284 300 307 313 325 320 316 334 347 359 3 360 352 351 356 3 14 22 24 21 20 20 18 16 14 14 15 17 20 22 22 21 20 18 18 17 16 14 13 14 13 12 13 15 16 14 11 10 9 6 4 2 2 3 4 3 2
227 272 292 288 276 259 246 235 236 248 259 264 271 286 294 299 306 304 299 302 311 335 354 356 346 346 353 2 14 24 27 25 22 20 18 15 15 15 16 18 21 24 24 23 22 22 22 22 20 16 14 15 16 14 13 15 17 17 14 12 10 8 5 3 2 4 5 4 3
232 267 285 279 263 245 230 231 251 271 280 282 283 289 294 297 297 287 279 278 285 313 339 345 336 336 345 359 14 25 30 28 24 20 18 16 15 15 17 19 21 23 24 25 25 25 25 24 22 18 15 15 17 17 17 16 18 18 16 14 12 10 8 6 5 6 6 5 5
234 262 279 276 259 242 234 248 274 289 297 300 299 298 301 307 307 294 275 271 284 313 330 330 319 322 333 348 8 24 31 30 24 20 19 17 16 17 19 21 21 22 23 25 25 26 26 25 23 20 17 15 17 18 19 19 19 18 17 16 15 13 11 10 9 8 8 7 7
237 261 272 270 256 238 235 252 276 296 305 309 307 305 313 334 342 335 304 270 282 311 329 332 319 314 320 334 357 19 29 31 28 25 21 19 18 19 19 21 22 23 23 24 25 27 27 25 23 21 20 18 16 18 20 21 20 19 18 17 16 14 14 13 12 12 11 10 10
243 263 271 263 245 232 230 244 265 288 303 310 308 314 347 13 12 11 12 5 333 337 343 341 329 317 316 328 348 9 22 27 29 27 23 21 20 20 21 21 22 22 23 24 25 27 27 26 22 21 20 19 16 15 18 21 22 21 19 18 17 16 15 15 15 15 14 13 13
243 257 264 257 240 228 227 239 259 283 300 309 309 336 30 34 23 23 28 28 18 8 1 353 337 320 316 329 349 4 13 20 26 27 25 24 22 22 22 22 22 21 22 24 25 27 27 27 24 22 21 20 17 15 17 20 22 22 21 19 18 17 17 17 18 18 17 17 16
231 243 251 248 239 231 231 240 258 282 301 309 321 17 48 41 29 29 32 30 26 20 13 4 349 333 330 348 3 8 12 19 26 28 28 27 26 26 24 23 21 21 22 23 25 26 27 27 26 25 24 22 20 18 18 20 22 23 23 21 19 18 19 20 20 21 20 19 18
220 228 235 236 232 231 235 241 253 274 297 313 350 47 62 53 38 36 37 34 32 28 21 15 8 7 15 29 29 24 20 23 28 30 30 30 30 29 26 23 21 20 21 23 25 26 26 26 26 26 27 26 25 23 22 23 24 24 24 23 21 20 20 21 22 22 21 21 20
214 221 227 229 228 230 234 237 244 259 283 330 24 55 65 58 47 42 40 36 39 35 29 26 24 27 34 41 40 37 34 34 37 38 37 35 34 32 29 26 23 21 21 23 25 25 25 25 25 26 27 27 27 26 25 24 24 25 25 24 24 23 22 22 22 22 21 21 21
211 217 227 230 228 227 228 230 231 230 210 95 64 62 62 57 51 45 39 38 43 39 33 33 34 37 40 44 43 41 40 42 46 48 47 43 38 35 32 28 25 23 22 23 25 25 24 24 24 25 25 26 27 27 26 26 25 24 24 25 25 24 23 22 22 22 21 22 22
209 216 225 227 225 222 220 219 213 196 160 124 94 76 67 62 57 50 42 40 45 42 36 37 41 43 43 44 44 43 42 43 48 55 57 53 45 38 34 30 27 24 22 24 26 26 25 25 25 24 24 25 27 28 28 28 26 24 23 24 24 24 23 22 22 22 22 23 22
210 217 224 225 220 213 207 202 189 170 146 124 104 88 74 66 64 60 53 47 47 45 41 41 48 49 47 45 45 45 45 45 49 56 61 59 51 42 36 32 28 25 23 25 28 28 27 27 26 26 25 25 27 29 31 31 29 27 24 22 22 23 23 22 22 22 22 22 22
210 215 221 222 215 205 194 184 172 158 142 125 108 93 80 70 66 64 58 51 48 44 41 45 57 58 54 50 49 48 48 48 50 55 60 58 53 46 40 34 30 26 24 26 29 30 29 28 28 27 27 26 27 30 33 33 32 31 29 26 24 24 24 23 23 23 23 22 22
211 215 218 218 210 199 187 176 166 155 142 126 110 96 85 74 66 60 55 47 40 33 33 47 66 69 63 56 53 52 51 50 51 52 54 53 51 47 42 36 30 26 24 25 28 29 30 31 31 30 29 28 28 31 33 34 34 33 32 31 29 28 26 25 24 24 24 24 24
210 213 215 213 206 196 184 174 165 156 144 129 114 101 89 78 66 59 52 44 36 30 34 49 69 75 71 63 58 55 53 51 50 50 49 49 48 47 43 38 32 27 23 23 25 27 29 32 33 33 32 31 30 31 34 35 35 35 34 34 33 33 31 29 27 26 26 26 26
207 211 212 210 204 194 184 174 166 158 147 135 122 108 95 83 71 61 53 44 37 34 37 47 63 75 76 71 65 59 55 52 51 50 51 50 49 47 44 40 34 29 24 23 23 25 28 32 34 35 34 33 32 33 35 36 37 36 36 36 36 36 36 35 33 30 28 27 27
204 207 209 206 201 192 183 175 168 161 152 141 128 116 104 91 78 66 57 49 41 37 38 43 54 68 76 76 72 65 58 54 51 51 54 55 52 48 45 42 37 31 26 23 23 25 30 35 35 35 34 34 34 35 36 38 38 38 38 38 37 38 39 40 38 35 32 29 28
199 203 205 203 199 191 183 176 171 165 158 148 135 125 114 101 86 75 65 57 48 42 40 43 50 61 71 78 76 70 62 55 50 50 54 58 54 49 45 41 37 32 28 25 23 24 29 36 38 37 35 34 34 35 37 39 39 39 39 39 39 40 41 42 42 40 36 32 31
193 198 200 200 197 190 183 179 175 171 163 153 142 132 122 109 98 88 78 66 55 48 44 44 48 54 63 74 77 73 66 57 51 49 52 58 56 51 45 41 37 34 30 27 24 23 25 33 40 39 37 35 35 36 37 39 40 41 40 40 40 41 42 43 43 42 39 36 34
188 193 196 197 195 190 186 182 179 175 168 158 147 137 128 118 108 99 88 74 64 56 51 46 45 46 52 67 79 78 70 61 52 48 51 59 59 53 46 41 38 35 31 28 27 25 23 27 37 41 39 35 35 36 37 40 41 41 42 42 42 42 43 43 43 42 41 38 36
185 190 193 195 194 191 188 185 183 178 170 160 152 142 134 125 114 105 96 86 76 66 57 51 45 42 44 57 78 82 75 65 56 49 51 59 60 54 47 42 39 36 32 30 28 26 24 23 30 39 41 37 36 36 38 40 42 42 41 41 41 42 43 43 43 42 41 39 37
184 188 192 194 192 190 189 188 186 180 172 162 154 146 137 128 119 111 104 96 87 76 66 57 48 43 43 52 76 84 78 68 60 51 49 57 60 57 50 44 41 37 33 30 29 27 25 23 25 33 40 40 38 38 40 43 42 41 40 39 39 39 40 43 43 43 41 39 37
185 189 192 192 190 189 188 188 186 181 173 164 157 149 141 133 125 117 111 104 96 85 74 62 50 43 42 52 77 85 80 70 64 54 48 51 58 57 52 46 42 39 35 32 30 29 28 26 25 30 37 41 40 40 42 44 43 42 41 40 38 36 36 39 41 42 42 40 37
188 191 192 191 188 186 185 185 184 180 174 167 159 151 144 137 130 123 115 109 102 92 78 63 51 43 41 51 76 85 81 72 66 58 50 47 53 54 52 48 44 40 36 33 33 33 33 32 29 30 35 41 42 43 44 45 44 44 43 43 40 37 35 34 36 38 40 40 38
192 193 193 191 187 183 181 182 183 179 175 169 162 154 146 142 136 129 120 112 106 96 81 64 52 43 41 50 74 85 83 74 68 60 53 50 52 53 51 48 45 41 37 35 36 37 37 37 34 33 36 43 46 47 46 45 45 44 43 43 42 40 37 34 33 34 36 38 38
195 195 194 191 186 182 179 181 181 179 177 172 166 159 152 148 143 135 124 115 108 99 84 69 53 43 40 49 70 83 84 76 70 62 56 53 54 54 52 50 47 43 38 36 38 40 41 40 39 38 39 46 51 53 53 51 49 46 44 43 43 42 40 37 36 34 34 35 36
198 198 196 192 187 181 179 179 180 180 179 176 173 167 162 157 151 141 131 122 114 103 90 75 57 46 42 48 64 79 84 79 73 65 59 57 59 58 54 50 47 43 39 37 39 41 43 43 43 43 44 49 56 59 58 57 55 51 48 46 45 44 42 41 39 37 35 34 35
200 200 198 194 188 182 179 179 180 181 181 181 181 177 173 167 158 149 139 131 121 108 93 78 66 57 51 50 57 72 82 81 76 68 60 56 57 57 55 51 48 43 39 37 39 42 44 47 47 47 48 52 61 65 64 63 60 56 54 51 49 47 45 44 42 40 38 36 34
202 202 199 195 189 183 179 179 182 183 184 185 186 186 181 173 163 155 146 136 124 112 99 86 75 66 59 55 56 67 77 81 76 69 62 56 56 55 54 52 48 44 39 37 38 41 44 48 49 49 51 55 66 71 70 68 66 64 61 57 53 50 47 45 44 42 40 38 35
203 203 200 196 190 185 181 181 183 184 185 186 188 188 184 176 167 159 151 140 129 119 111 99 85 77 70 65 61 66 75 81 77 71 64 58 55 55 54 53 49 44 39 37 37 40 43 47 49 51 53 57 68 74 76 76 74 71 68 63 58 53 49 46 44 43 41 40 37
204 203 201 197 191 186 184 184 185 184 185 186 188 188 183 175 169 163 156 148 139 129 120 107 96 89 84 77 71 70 74 80 81 76 67 60 55 54 54 54 51 45 39 37 37 39 41 44 48 51 54 58 66 74 81 84 80 76 73 68 63 57 52 49 46 44 41 39 37
204 204 202 198 192 189 187 187 186 185 184 185 186 185 181 175 170 166 162 156 149 139 127 114 103 95 89 82 78 75 74 76 80 79 72 64 58 55 55 55 54 48 41 38 37 38 40 42 46 51 55 58 61 66 75 82 79 75 72 70 67 62 56 50 47 44 41 37 35
204 203 201 197 193 191 190 189 188 186 185 185 185 183 179 175 172 169 167 163 159 151 139 126 114 105 96 90 83 78 77 77 79 81 78 70 61 58 57 57 56 51 44 39 37 37 38 39 41 48 55 58 56 56 60 70 71 70 69 69 64 59 55 51 48 45 42 38 34
203 202 200 197 194 193 193 192 189 187 186 186 186 183 179 176 174 173 173 172 169 161 150 141 131 123 116 107 95 87 84 83 84 84 81 72 63 58 58 57 56 51 46 42 38 37 36 36 36 42 52 58 55 49 49 54 59 61 60 62 58 54 51 51 49 47 44 40 35
202 202 200 197 194 194 194 194 192 189 188 188 187 184 180 177 176 177 178 179 176 168 159 152 146 140 133 121 108 97 91 90 90 88 84 75 64 59 58 58 56 53 49 44 41 38 36 35 34 37 45 52 50 44 41 43 49 52 52 52 51 48 45 46 48 48 46 41 36
201 202 201 198 195 194 195 195 194 192 190 188 188 186 183 180 178 178 181 183 180 173 165 159 153 148 141 131 117 104 98 95 96 96 91 81 65 58 58 60 59 58 53 47 43 40 38 35 34 34 38 44 44 39 35 36 40 44 45 46 48 46 42 41 41 43 43 41 36
200 201 201 199 197 195 195 196 196 194 192 190 188 187 184 182 180 180 182 184 183 176 167 160 155 150 145 139 130 119 109 103 101 101 99 89 67 54 54 59 62 62 58 51 45 42 40 37 35 34 35 40 42 38 34 32 33 35 36 37 40 40 39 36 34 34 36 38 36
198 200 201 200 198 197 197 197 197 195 193 191 190 187 184 180 179 180 181 183 182 175 166 158 153 149 147 145 142 135 125 116 112 111 107 94 71 54 50 54 58 61 59 54 48 44 41 39 36 34 34 36 39 38 34 30 29 29 27 26 26 28 30 30 30 29 29 31 35
197 199 200 201 200 200 199 198 197 195 194 193 191 187 183 179 177 177 179 180 177 170 162 156 152 150 149 150 150 146 139 131 128 123 115 97 76 60 51 49 52 56 57 54 50 45 42 41 38 35 33 32 36 36 33 28 27 24 21 19 19 18 18 21 24 25 25 24 27